Location: Saint-Palais-sur-Mer
(45.6429°N, 1.0859°W)
Time: 02:56:33
(UTC+02:00)

CUBEBUG 2 - Pass Details

Date: 29 April 2024
Orbit: 570 x 668 km, 97.8° (Epoch: 23 May)

Event Time Altitude Azimuth Distance (km) Brightness Sun altitude
Rises 05:34:44 0° 356° (N) 2,807 ? -13.0°
Reaches altitude 10° 05:37:32 10° 336° (NNW) 1,915 ? -12.6°
Maximum altitude 05:40:07 16° 297° (WNW) 1,557 ? -12.2°
Enters shadow 05:41:57 13° 268° (W) 1,758 ? -12.0°
